Location: McGregor
(40.8333°S, 175.4167°E)
Time: 05:08:46
(UTC+00:00)

Daily predictions for brighter satellites

Satellite Brightness Start Highest point End
(mag) Time Altitude Azimuth Time Altitude Azimuth Time Altitude Azimuth
AQUARIUS 4.2 06:38:44 10° SSE 06:43:19 73° ENE 06:47:49 10° N
Cosmos 1733 Rocket 3.4 06:39:46 10° S 06:44:10 75° W 06:48:32 10° N
Cosmos 1809 Rocket 4.5 06:38:13 10° S 06:44:29 82° E 06:50:38 10° N
Cosmos 1470 4.2 06:41:33 10° SSE 06:44:31 19° ESE 06:47:27 10° ENE
NOAA 6 4.2 06:40:41 10° SSE 06:45:47 54° E 06:50:48 10° N
ASTEX 1 3.7 06:46:18 10° N 06:51:20 79° W 06:56:26 10° S
Cosmos 1626 4.0 06:50:43 10° ENE 06:52:05 12° E 06:53:28 10° ESE
Cosmos 2333 Rocket 3.0 06:47:19 10° S 06:52:34 34° ESE 06:57:47 10° ENE
BREEZE-M R/B 4.3 06:49:47 10° N 06:54:01 35° ENE 07:03:32 10° ESE
Okean 3 3.8 06:50:41 10° NNE 06:54:39 42° E 06:58:40 10° SSE
Cosmos 2034 Rocket 4.0 06:50:28 10° N 06:56:42 67° E 07:02:56 10° SSE
SL-27 R/B 3.5 06:54:39 10° NNE 06:57:10 21° E 06:59:43 10° SE
Radarsat Rocket 4.2 06:52:41 10° SSE 06:58:27 50° ENE 07:04:32 10° N
Cosmos 1726 2.3 06:59:08 10° SSW 07:02:48 75° W 07:06:25 10° N
NOSS 3-3 (A) 4.4 07:00:28 10° SW 07:06:32 57° WNW 07:11:53 10° NNE
NOSS 3-3 (C) 4.4 07:00:34 10° SW 07:06:40 58° WNW 07:11:59 10° NNE
ATLAS 5 CENTAUR R/B 4.2 07:04:45 10° S 07:07:20 13° SSE 07:09:43 10° SE
Okean O Rocket 3.1 07:06:20 10° SE 07:09:07 16° E 07:11:17 12° NE
Cosmos 1703 Rocket 3.6 07:04:44 10° N 07:09:08 67° E 07:13:38 10° SSE
CZ-4B R/B 3.5 07:05:22 10° S 07:09:29 65° WSW 07:13:44 10° NNW
Meteor 1-12 Rocket 4.3 07:03:41 10° S 07:09:30 87° E 07:15:20 10° N
CZ-4C R/B 3.0 07:06:20 10° NNE 07:09:43 59° ESE 07:13:12 10° S
Cosmos 2219 Rocket 3.0 07:04:37 10° S 07:09:44 33° ESE 07:14:04 13° ENE
Landsat 5 4.2 07:08:16 10° N 07:12:29 57° W 07:16:35 10° SSW
COSMOS 2455 2.9 07:09:18 10° SSW 07:15:22 64° ESE 07:21:19 10° NE
Cosmos 1437 Rocket 2.8 07:11:31 10° S 07:15:40 76° E 07:19:41 10° NNE
SMAP 4.5 07:11:32 10° S 07:16:00 43° WSW 07:20:26 10° NW
Cosmos 2237 Rocket 4.2 07:19:56 10° SSE 07:22:11 12° SE 07:24:15 10° ESE
Cosmos 1908 Rocket 3.7 07:20:23 10° S 07:24:55 80° W 07:29:22 10° N
COSMOS 2428 3.7 07:20:14 10° S 07:25:13 29° SE 07:28:09 19° E
JB-3 4.5 07:21:40 10° N 07:25:32 73° WNW 07:29:25 10° SSW
Geosat 4.2 07:21:05 12° NE 07:25:34 54° ESE 07:30:31 10° SSW
Milstar 3 4.3 07:20:59 10° WNW 07:26:50 24° NNW 07:32:04 10° NE
Cosmos 2360 Rocket 2.3 07:22:11 10° SSW 07:27:56 82° WNW 07:33:38 10° NNE
Cosmos 1782 Rocket 3.5 07:27:36 10° S 07:32:03 63° E 07:36:24 10° NNE
Cosmos 405 Rocket 4.3 07:29:05 10° NW 07:32:42 38° WSW 07:36:18 10° S
Cosmos 1674 3.0 07:29:29 10° NNE 07:32:57 38° E 07:36:27 10° SSE
In-Cosmos 22 4.1 07:30:47 10° N 07:36:05 60° E 07:41:36 10° SSE
Cosmos 1300 Rocket 4.0 07:32:03 10° S 07:36:12 39° ESE 07:38:10 25° NE
Delta 2 Rocket 4.5 07:32:10 10° WNW 07:37:31 48° N 07:40:22 25° NE
Cosmos 2333 4.2 07:32:08 10° SSW 07:37:56 76° ESE 07:42:54 14° NNE
YAOGAN 1 2.9 07:34:22 10° SSE 07:38:32 41° E 07:42:38 10° N
Okean 1-7 4.0 07:34:30 10° NNW 07:38:41 49° W 07:42:59 10° S
Cosmos 1818 3.5 07:33:48 10° NNW 07:39:11 83° ENE 07:44:38 10° SSE
PAYLOAD B 4.2 07:33:38 10° SSE 07:39:18 67° ENE 07:44:52 10° N
KORONAS-FOTON 3.9 07:36:05 10° N 07:39:48 52° E 07:43:34 10° SSE
X-37B 0.7 07:37:03 10° WSW 07:39:53 53° SSE 07:40:30 42° ESE
Cosmos 2195 Rocket 4.4 07:34:32 10° S 07:40:46 85° E 07:46:55 10° N
Lacrosse 5 rocket 1.8 07:38:02 10° N 07:41:02 31° NE 07:41:02 31° NE
HJ-1C 3.7 07:38:33 10° SSE 07:41:19 38° E 07:41:19 38° E
Cosmos 1842 4.4 07:38:05 10° NNW 07:41:53 47° W 07:45:46 10° S
Cosmos 1758 3.9 07:38:53 10° S 07:42:40 37° ESE 07:43:27 33° ENE
Cosmos 2279 Rocket 4.2 07:37:29 10° NNE 07:43:28 48° E 07:49:29 10° SSE
Cosmos 1428 Rocket 4.4 07:37:32 10° S 07:43:46 86° E 07:49:54 10° N
Cosmos 1634 Rocket 3.9 07:38:07 10° N 07:44:22 77° E 07:50:45 10° S
USA 276 1.9 07:43:08 10° NW 07:46:07 64° NE 07:46:21 60° ENE
CZ-4B R/B 3.2 07:40:50 10° SSE 07:46:07 52° E 07:51:17 10° N
Cosmos 1707 2.8 07:43:32 10° N 07:47:25 82° W 07:51:22 10° S
SJ 16-02 1.4 07:46:07 10° S 07:50:34 59° ESE 07:52:15 35° NE
Lacrosse 4 Rocket 3.9 07:47:31 10° WSW 07:50:35 20° WNW 07:53:35 10° NNW
Cosmos 2322 Rocket 3.9 07:46:27 10° SW 07:51:28 33° WNW 07:56:29 10° NNW
Cosmos 2242 Rocket 4.2 07:49:26 10° NNW 07:53:51 60° W 07:58:22 10° S
DELTA 2 R/B (1) 3.7 07:49:17 10° W 07:54:50 68° NNW 07:57:14 34° ENE
CZ-4 R/B 1.6 07:52:09 10° SSE 07:55:49 44° E 07:55:49 44° E
Cosmos 2026 Rocket 4.1 07:52:55 10° S 07:59:19 82° W 08:05:32 10° N
CZ-3 Stage 3 4.5 07:59:30 10° NNW 08:00:33 16° N 08:00:33 16° N
Cosmos 1354 Rocket 3.9 07:57:00 10° SSW 08:02:23 75° ESE 08:04:48 33° NNE
Timation 1 Rocket 4.3 07:57:03 10° N 08:02:55 61° ENE 08:08:52 10° SSE
USA 290 4.2 08:00:25 10° SW 08:03:20 28° WNW 08:05:38 14° NNW
Atlas Centaur 2 4.3 08:01:34 10° NW 08:04:37 15° NNW 08:07:11 12° N
Cosmos 2322 3.6 08:01:44 10° SSW 08:07:33 81° ESE 08:10:06 35° NNE
Sich 1 Rocket 3.8 08:03:29 10° S 08:07:56 48° ESE 08:07:56 48° ESE
H-2A R/B 2.0 08:10:18 42° NNE 08:11:48 86° ESE 08:16:23 10° SSW
ATLAS 3B R/B 3.3 08:07:14 10° N 08:18:59 16° SE 08:20:23 10° SE
MOS 1-B 4.4 08:08:43 10° SSE 08:14:35 82° WSW 08:20:23 10° NNW
Cosmos 1908 3.2 08:11:35 10° S 08:15:13 71° SE 08:15:13 71° SE
Genesis I 4.2 08:19:32 10° NW 08:23:02 43° SW 08:25:19 19° SSE
Cosmos 1626 3.4 08:23:11 10° NNW 08:26:39 39° WSW 08:30:10 10° S
Cosmos 1953 4.0 08:23:48 10° S 08:25:44 24° SSE 08:25:44 24° SSE
Cosmos 1607 4.0 08:24:32 10° SSW 08:30:55 63° SE 08:31:55 56° E
Cosmos 2221 Rocket 3.7 08:32:41 67° SSE 08:32:41 67° SSE 08:36:43 10° S
Okean 2 4.3 08:33:48 20° NW 08:36:20 47° W 08:40:23 10° S
Cosmos 2333 Rocket 3.6 08:31:36 10° SW 08:36:49 36° WNW 08:40:46 16° NNW
Cosmos 1655 Rocket 4.1 08:31:36 10° S 08:37:57 56° E 08:38:03 56° E
Meteor 2-10 Rocket 4.2 08:34:02 10° S 08:37:57 41° SE 08:37:57 41° SE
Okean O Rocket 2.6 08:41:26 10° S 08:45:40 45° WSW 08:48:43 17° NW
Cosmos 1980 4.2 08:40:19 10° SSW 08:45:09 47° SE 08:45:09 47° SE
Cosmos 2297 Rocket 4.0 08:51:49 18° SSE 08:51:49 18° SSE 08:53:17 10° SSE
Cosmos 1777 Rocket 4.4 08:46:19 10° SSW 08:51:34 58° WNW 08:52:08 55° NW
Cosmos 2219 Rocket 3.4 08:48:31 10° SW 08:53:40 36° WNW 08:55:50 27° NNW
ATLAS 5 CENTAUR R/B 2.8 08:48:16 10° SSW 08:52:42 40° SSE 08:52:42 40° SSE
Cosmos 2237 Rocket 2.7 09:01:36 10° SSW 09:06:06 53° S 09:06:06 53° S
Okean 2 Rocket 4.5 09:04:23 10° SSW 09:07:37 37° WSW 09:07:37 37° WSW
COSMOS 2428 3.6 09:04:12 10° SW 09:09:34 42° WNW 09:10:11 40° WNW
Cosmos 2266 Rocket 4.1 09:08:13 10° SSW 09:14:25 72° W 09:14:25 72° W
SJ 16-02 4.2 09:26:44 10° WSW 09:28:29 12° W 09:29:14 12° WNW
CZ-4 R/B 4.3 09:28:20 10° SSW 09:30:33 15° WSW 09:31:45 13° W
SL-16 R/B 3.9 09:39:55 10° SSW 09:42:35 26° S 09:42:35 26° S
ATLAS 3B R/B 3.6 09:57:19 10° NW 10:05:47 46° SSW 10:11:21 10° SSE
CZ-4C R/B 4.4 10:44:55 27° S 10:44:55 27° S 10:47:59 10° SSE
